Wind_Speed
26 26 27 28 32 34 37 35 28 28 41 49 49 51 55 57 56 53 50 49 48 50 47 44 43 41 41 42 42 39 34 34 32 28 24 21 20 19 20 26 24 23 17 22 23 14 14 14 14 17 19 21 22 25
19 21 24 27 29 30 30 31 31 32 32 32 31 31 31 29 27 27 30 31 32 34 36 31 31 30 29 28 30 32 30 25 15 13 16 13 15 13 17 15 16 20 22 20 16 10 19 18 20 22 24 29 34 39
29 25 23 20 22 24 26 26 27 27 28 28 28 28 26 27 26 25 24 22 23 26 28 27 24 25 29 30 30 33 33 30 33 32 32 32 32 27 27 26 25 21 21 25 25 25 33 35 30 32 43 44 44 42
21 23 25 24 26 22 20 20 21 22 22 22 22 21 21 21 22 23 22 22 23 25 29 29 26 25 26 28 30 30 25 24 25 26 24 30 34 28 32 31 31 28 28 33 37 36 39 40 42 39 34 36 33 35
17 20 21 20 21 24 25 24 21 18 17 18 18 17 17 17 20 21 20 19 19 21 26 23 22 24 26 25 21 19 20 23 23 27 27 27 30 29 35 40 43 37 36 33 35 32 35 35 30 30 30 30 27 23
17 16 16 17 20 21 21 18 19 18 19 19 19 19 18 18 18 18 18 19 20 22 25 26 16 15 16 20 26 28 25 24 26 31 37 34 27 27 25 38 34 20 16 20 29 33 29 24 22 19 17 14 15 15
17 17 16 16 15 15 18 21 22 21 18 17 18 19 20 20 18 17 17 16 16 16 17 14 11 11 16 21 22 24 29 30 28 25 31 33 32 29 33 35 39 39 30 25 22 22 12 12 9 9 10 11 14 15
18 18 16 16 16 15 15 15 17 19 21 22 20 17 16 15 15 16 18 19 17 17 17 10 8 10 10 13 13 14 16 15 14 16 16 14 16 17 16 21 20 23 22 15 9 7 6 8 10 13 15 17 20 22
19 18 17 17 16 16 16 14 15 15 15 17 18 17 17 15 14 12 13 13 13 12 7 10 11 8 8 10 13 13 13 12 15 17 16 13 16 12 14 14 19 25 13 9 7 6 9 13 15 18 21 23 27 30
19 18 17 16 15 15 16 14 15 14 14 13 12 11 11 10 8 9 13 15 14 15 14 14 13 12 13 11 15 19 16 12 11 12 9 9 13 16 13 6 5 7 7 5 9 12 14 18 22 26 29 32 34 36
17 17 16 15 15 13 13 10 13 13 11 10 7 7 9 12 12 9 6 5 4 4 7 9 13 15 14 13 7 5 6 3 3 4 5 4 3 6 8 10 10 10 12 13 16 17 20 25 30 34 37 38 40 42
15 13 12 13 12 11 11 7 10 11 9 8 9 9 8 7 5 5 5 5 6 3 3 1 2 2 1 4 4 3 3 3 4 6 4 4 7 14 16 16 15 14 15 17 20 23 27 31 35 38 41 43 42 41
13 12 11 11 11 11 9 8 9 9 11 11 10 3 2 2 3 3 3 2 2 5 4 4 4 3 2 2 3 4 5 6 6 5 5 6 13 14 11 15 21 22 23 26 28 29 33 35 36 36 38 39 42 43
12 11 11 11 12 11 9 10 7 9 9 8 4 3 2 2 1 3 4 2 3 4 2 2 2 3 5 6 6 4 6 5 4 3 4 9 10 21 25 27 29 30 31 33 34 36 37 38 39 38 41 43 43 43
15 12 10 10 12 11 9 10 8 7 6 5 3 1 2 3 4 4 7 4 2 4 5 6 6 5 5 5 2 2 2 1 1 3 14 21 25 29 32 33 34 36 37 38 37 38 40 41 42 43 42 42 41 42
17 13 8 7 9 7 8 9 7 5 4 3 2 2 2 1 4 2 4 4 5 5 6 4 2 1 1 1 1 1 2 2 6 14 21 27 31 31 32 32 30 31 35 39 41 42 42 42 42 42 42 43 43 42
13 11 8 5 4 5 7 4 4 4 3 2 2 4 5 5 5 6 8 8 6 4 3 2 2 1 3 2 1 1 4 11 18 24 29 29 29 29 30 33 37 40 38 39 40 40 41 41 41 40 39 36 35 32
19 13 7 5 7 1 4 2 1 2 3 4 5 6 7 10 11 10 8 6 3 2 3 3 4 5 2 3 6 11 18 23 24 23 24 28 33 36 38 38 35 35 41 39 36 35 34 34 34 34 33 32 31 29
17 14 10 6 6 5 5 1 1 3 2 1 1 4 4 4 3 4 5 4 3 4 7 7 4 7 6 9 16 18 18 19 23 30 36 36 31 30 31 33 37 39 35 34 32 31 31 31 31 31 30 29 28 26
17 14 9 5 6 6 3 1 3 2 3 7 3 3 6 7 5 5 6 7 8 10 12 11 6 8 11 12 12 15 20 26 32 40 32 27 31 34 35 35 32 31 33 31 28 28 28 27 26 27 26 26 26 24
14 10 7 5 8 5 0 2 4 5 6 5 5 4 4 3 2 4 6 9 10 7 5 6 5 5 7 12 16 21 26 32 36 28 30 36 36 34 31 29 30 29 28 28 28 27 27 28 27 25 25 24 23 23
14 8 6 7 6 4 1 3 7 7 5 7 7 5 5 4 2 2 4 2 1 1 2 2 3 8 13 17 21 27 33 32 25 26 30 36 35 32 29 29 29 28 27 27 26 27 27 28 27 25 25 23 21 20
11 9 9 9 3 2 1 4 7 5 5 7 10 8 8 8 7 5 2 1 1 4 2 2 6 14 21 26 27 34 28 25 27 29 33 34 32 29 28 26 27 28 27 24 26 27 27 25 24 24 22 20 18 16
11 6 5 2 0 2 4 5 3 4 4 9 10 6 8 9 7 5 4 3 3 1 6 14 20 23 24 32 25 22 25 28 31 32 34 33 31 27 25 24 24 26 26 25 25 25 24 23 22 21 20 17 15 14
2 2 3 3 2 3 3 4 4 5 7 9 7 5 8 8 5 4 5 4 6 14 18 22 22 31 27 21 21 25 30 33 33 32 31 32 31 28 24 19 18 23 24 24 24 24 23 22 20 19 17 16 13 10
4 4 3 3 4 4 3 4 6 10 11 9 4 4 7 5 2 1 2 11 17 20 20 25 28 21 19 22 29 32 33 33 32 31 30 31 30 28 25 22 20 19 22 23 25 24 22 21 19 16 14 13 11 9
4 3 4 4 5 7 9 9 9 9 7 3 4 6 6 3 2 5 14 19 21 20 27 26 21 21 24 30 33 34 33 31 31 30 29 30 31 31 29 26 24 24 23 23 24 24 23 20 17 14 12 11 10 9
4 4 6 7 8 8 8 7 6 4 4 4 8 9 8 7 13 18 19 20 24 24 21 18 19 25 32 34 33 31 28 27 24 23 22 24 27 27 26 24 23 22 21 23 24 22 21 19 16 15 12 10 9 9
5 7 9 10 9 7 6 7 6 6 8 10 12 14 15 17 19 21 23 23 21 17 15 18 22 28 31 29 28 29 28 26 23 21 20 18 14 15 16 17 17 18 19 18 18 19 19 18 17 15 13 11 8 7
9 10 12 11 9 8 8 9 10 13 15 15 14 16 18 20 22 20 17 15 13 15 20 25 29 30 27 25 21 21 24 25 27 27 26 24 22 21 19 17 16 16 16 16 15 15 15 14 13 13 12 10 8 6
11 12 12 13 13 13 13 11 11 14 17 16 14 13 13 13 11 10 10 11 14 20 24 25 25 24 23 22 21 18 18 21 22 24 25 24 22 20 19 18 18 18 18 18 17 15 14 13 12 11 10 9 8 6
10 11 13 12 10 14 16 15 12 8 5 5 6 5 5 5 5 5 9 15 19 24 25 24 23 22 22 22 23 25 26 25 26 26 24 23 21 20 20 20 20 19 18 17 16 14 13 12 11 10 9 9 8 7
13 13 15 16 16 12 11 10 4 3 5 5 4 4 3 4 8 13 17 22 26 26 23 22 22 23 23 24 23 23 23 24 26 25 24 23 22 21 19 19 19 18 17 16 14 13 12 11 10 9 9 8 8 8
Wind_Direction
267 268 268 269 269 274 277 277 276 275 272 269 274 271 272 272 274 276 275 276 276 278 277 274 273 269 268 267 269 272 272 267 270 259 257 258 260 255 252 251 255 255 249 236 229 234 262 241 247 233 240 245 256 270
276 279 272 270 270 271 273 272 273 276 276 277 280 280 279 281 278 267 266 265 266 270 272 272 270 270 267 263 261 262 259 254 236 232 231 239 240 240 242 245 245 249 247 254 238 250 250 258 242 250 260 276 287 292
291 276 270 273 275 274 272 271 270 270 270 272 272 273 274 274 272 269 267 267 268 269 273 274 267 256 255 255 255 258 258 259 258 260 261 259 256 261 256 257 253 244 247 264 268 262 269 264 263 276 293 294 296 297
280 278 281 286 283 277 274 273 270 268 269 272 273 275 274 273 270 269 270 270 269 273 275 269 270 269 264 260 260 258 258 254 258 261 261 259 261 268 266 266 269 269 271 270 273 276 275 278 286 289 288 288 288 293
294 285 279 276 272 279 292 294 285 280 273 271 273 274 278 275 272 271 270 268 267 264 269 269 269 269 271 272 264 253 259 253 245 251 253 256 264 265 268 274 273 277 280 273 272 277 276 276 267 280 289 291 298 301
291 296 298 289 279 275 271 279 290 288 289 287 281 279 278 273 275 278 275 265 263 263 268 276 277 265 257 253 254 257 248 233 236 254 265 272 274 261 261 279 281 267 256 269 279 275 264 286 299 300 300 299 295 300
292 291 288 292 296 291 282 278 276 277 279 278 279 280 281 279 275 273 268 271 266 266 271 283 285 258 245 246 253 248 249 255 260 262 253 256 263 264 265 264 274 281 288 280 263 279 291 296 297 288 277 281 286 291
286 286 292 291 285 290 298 297 289 283 276 274 274 276 278 282 281 273 269 267 264 262 263 264 247 240 236 248 260 264 267 263 255 245 249 265 272 265 264 267 278 277 279 289 295 288 270 272 270 277 286 291 292 294
284 285 285 287 293 291 286 293 302 300 291 283 277 273 274 275 276 267 261 265 265 250 240 248 259 271 257 252 252 257 263 273 272 270 268 270 272 252 254 271 272 285 278 264 283 302 270 272 282 290 297 298 299 301
286 283 282 283 285 288 291 289 305 305 301 298 288 280 277 257 254 258 264 269 258 241 234 254 243 252 256 256 281 295 293 276 252 266 275 259 248 254 258 289 311 299 321 299 270 265 275 279 291 299 302 303 301 301
288 282 280 282 282 283 283 285 309 318 317 322 303 276 262 259 261 257 243 217 186 210 228 240 250 251 263 279 262 225 244 210 209 224 235 251 275 234 240 240 253 260 260 259 266 275 287 296 301 302 303 303 302 303
287 285 285 287 291 284 277 255 293 306 309 322 316 295 277 264 231 208 192 179 213 208 152 79 62 102 203 251 257 273 263 238 234 225 222 201 182 208 236 242 243 265 286 288 297 300 298 299 298 300 301 301 301 302
283 284 290 299 292 293 282 231 276 290 297 304 319 301 274 239 193 185 198 196 123 98 60 32 4 1 4 328 268 246 229 230 242 230 222 200 208 212 239 313 333 326 313 308 304 301 299 297 297 298 301 301 301 300
273 274 282 290 302 293 287 223 263 275 297 311 316 270 242 151 66 202 188 129 91 91 80 38 343 294 249 238 224 224 227 237 230 231 147 11 320 322 330 322 314 313 312 310 308 305 302 301 300 300 301 301 302 301
257 263 276 293 304 292 276 211 249 280 297 313 288 237 215 172 155 105 110 113 68 4 345 336 322 290 271 252 259 261 243 264 44 20 332 327 324 319 317 313 311 309 306 302 300 299 298 299 301 301 302 302 302 302
253 256 268 290 308 286 187 213 256 276 292 297 259 191 149 5 190 239 299 303 315 318 319 324 304 336 305 222 257 276 327 40 320 310 306 303 304 306 305 305 305 306 305 304 303 303 303 303 303 303 303 303 302 300
245 244 244 277 254 209 200 225 252 245 249 229 240 287 266 263 259 275 289 294 293 291 354 33 7 338 317 302 285 268 296 289 291 292 301 307 310 312 310 308 308 308 309 310 308 306 305 304 304 304 303 304 303 304
228 211 215 237 232 243 167 215 278 272 269 292 278 273 267 261 257 258 267 283 275 300 329 325 308 287 258 272 294 283 283 291 301 309 316 318 312 308 308 309 308 307 311 311 310 309 310 311 309 307 306 307 306 307
198 204 208 223 211 174 178 214 359 334 358 33 285 307 307 295 278 242 231 238 244 279 294 305 305 314 312 277 281 297 304 313 320 323 322 318 316 314 312 309 309 310 311 312 313 315 316 316 314 313 313 314 313 315
158 168 178 201 194 193 207 30 10 28 348 329 315 301 275 267 266 249 240 252 265 281 293 302 314 277 285 302 310 319 324 323 319 318 318 319 319 318 316 316 316 315 315 314 314 316 317 317 315 314 315 314 314 316
133 153 173 166 171 185 165 34 19 346 342 5 28 29 45 30 315 271 267 269 282 307 304 291 292 309 326 329 327 324 316 314 316 318 322 327 328 323 320 318 316 316 317 319 319 321 322 322 322 320 318 317 317 319
150 152 148 163 174 208 142 27 10 12 80 70 49 50 35 33 29 334 314 283 197 320 324 40 14 344 329 318 309 306 309 317 317 316 318 321 324 324 322 322 321 322 323 323 322 324 326 325 324 323 321 319 318 320
140 130 133 135 106 105 25 345 6 45 94 41 31 34 28 33 22 10 110 119 44 134 146 294 310 320 321 315 309 312 317 317 317 318 319 321 323 323 322 322 319 321 325 328 328 329 329 328 326 323 323 324 322 324
132 83 66 95 296 328 343 348 36 87 43 23 19 22 22 14 16 38 46 102 142 341 339 327 322 311 306 313 317 319 321 322 323 325 324 323 324 327 327 327 323 322 327 331 331 332 332 333 332 329 327 326 326 329
161 63 67 39 9 2 19 64 61 38 5 4 16 25 8 5 30 69 48 32 356 334 325 315 308 316 321 325 327 328 327 327 328 330 328 326 326 329 331 332 329 324 330 331 334 337 339 338 336 334 332 330 334 337
63 52 40 32 41 44 25 356 345 343 346 354 358 3 7 6 51 350 1 324 325 320 313 315 322 325 329 331 333 333 332 333 333 335 333 329 329 333 338 338 339 338 333 333 336 340 342 342 340 336 332 330 333 340
36 31 33 353 338 330 328 328 330 332 336 338 348 352 358 340 304 298 311 316 317 315 319 323 326 330 332 335 336 333 334 336 336 336 336 332 331 333 335 334 333 334 335 335 337 339 341 342 343 343 340 331 331 337
31 12 354 341 335 335 336 347 355 360 349 338 337 336 331 313 301 307 312 314 316 320 323 325 331 334 334 332 333 333 335 335 337 338 336 327 319 318 321 321 322 327 333 333 330 333 336 339 343 345 342 332 322 323
1 350 342 343 335 332 331 328 326 318 308 303 304 309 307 305 303 306 310 313 319 324 328 329 330 332 332 334 334 333 336 339 342 346 346 343 336 322 322 322 326 329 331 329 331 332 336 340 344 348 349 346 339 333
326 321 322 327 329 323 310 301 292 294 292 288 286 288 290 292 297 303 306 320 333 336 336 335 334 332 333 337 344 342 341 345 344 345 347 350 352 350 347 343 339 336 339 339 340 342 342 342 343 346 349 352 359 5
316 312 310 307 309 305 301 300 296 293 296 295 294 288 286 286 284 290 315 332 339 339 340 334 332 336 342 344 349 355 359 355 352 351 351 351 350 348 347 348 349 350 351 352 350 349 349 353 356 359 4 9 13 16
330 325 323 325 323 315 315 316 320 321 326 327 319 304 292 268 254 296 325 334 338 341 339 341 342 345 352 357 358 357 355 356 359 358 356 356 357 357 356 356 356 354 353 353 354 354 358 2 6 10 13 19 27 35
337 334 333 322 326 344 343 336 0 33 2 13 16 5 354 321 302 321 326 332 338 342 346 348 349 349 353 358 358 357 358 359 359 359 359 359 359 358 357 357 358 359 360 359 0 3 7 12 19 26 32 37 44 51
Height
3057 3055 3055 3053 3053 3052 3052 3052 3052 3050 3051 3053 3053 3053 3054 3055 3056 3055 3055 3055 3057 3053 3054 3054 3056 3058 3058 3057 3057 3058 3058 3055 3056 3056 3056 3055 3050 3050 3048 3048 3049 3050 3051 3050 3050 3050 3044 3038 3038 3042 3038 3033 3033 3033
3049 3048 3046 3046 3045 3044 3044 3043 3043 3043 3043 3042 3042 3043 3042 3042 3042 3042 3043 3043 3041 3041 3040 3041 3041 3043 3044 3046 3047 3045 3048 3048 3047 3046 3046 3045 3044 3042 3041 3042 3043 3044 3045 3044 3043 3039 3033 3033 3033 3032 3030 3028 3026 3024
3039 3040 3040 3038 3038 3036 3035 3035 3034 3034 3033 3033 3033 3033 3034 3034 3034 3034 3034 3035 3034 3031 3030 3031 3033 3033 3032 3034 3035 3036 3038 3040 3038 3040 3039 3038 3037 3036 3036 3035 3036 3037 3036 3033 3035 3032 3028 3027 3025 3023 3021 3019 3017 3015
3034 3032 3031 3031 3029 3029 3029 3028 3027 3026 3025 3025 3025 3025 3025 3025 3025 3026 3026 3026 3026 3025 3021 3024 3026 3026 3026 3026 3026 3026 3028 3030 3031 3031 3030 3029 3029 3027 3025 3028 3025 3028 3029 3027 3025 3024 3023 3020 3016 3014 3012 3011 3008 3007
3028 3027 3025 3024 3023 3023 3022 3021 3021 3020 3019 3019 3019 3018 3019 3018 3018 3019 3018 3018 3018 3020 3014 3016 3017 3018 3019 3019 3019 3019 3020 3021 3022 3023 3022 3022 3021 3022 3018 3016 3013 3016 3017 3017 3014 3015 3013 3011 3009 3008 3006 3004 3002 2999
3023 3021 3020 3019 3017 3017 3016 3016 3015 3014 3014 3013 3013 3012 3011 3011 3011 3011 3011 3011 3011 3010 3009 3007 3008 3009 3010 3010 3010 3011 3012 3012 3014 3015 3014 3012 3012 3016 3011 3006 3004 3005 3006 3007 3007 3005 3003 3001 3000 2999 2998 2997 2996 2994
3019 3017 3015 3014 3013 3011 3010 3010 3009 3008 3007 3007 3006 3006 3006 3006 3005 3005 3005 3004 3004 3004 3003 3001 3000 3000 3002 3001 3002 3003 3004 3004 3005 3006 3004 3005 3007 3009 3004 3002 3001 2999 2998 2997 2996 2995 2995 2995 2994 2993 2993 2992 2990 2989
3013 3012 3011 3010 3008 3007 3005 3004 3003 3002 3001 3000 3000 3000 3000 2999 2999 2999 2998 2998 2998 2999 3000 2998 2997 2998 2998 2997 2999 2998 2998 2998 2999 3000 3000 2999 2999 3000 2997 2996 2994 2993 2991 2991 2991 2990 2991 2992 2991 2989 2988 2986 2984 2982
3007 3006 3005 3005 3004 3002 3001 3000 2998 2997 2995 2994 2993 2994 2995 2994 2994 2993 2992 2992 2992 2996 2994 2992 2993 2994 2992 2992 2993 2993 2993 2994 2993 2993 2994 2996 2994 2994 2992 2991 2990 2988 2988 2988 2988 2987 2988 2987 2986 2985 2983 2981 2977 2974
3000 3000 3000 2999 2998 2998 2997 2996 2994 2992 2990 2989 2989 2989 2988 2989 2989 2990 2989 2988 2987 2988 2989 2989 2989 2990 2992 2991 2990 2993 2990 2990 2989 2991 2991 2989 2989 2988 2987 2986 2987 2987 2985 2985 2985 2984 2982 2981 2980 2978 2975 2972 2968 2963
2995 2994 2994 2993 2993 2993 2992 2991 2991 2990 2988 2986 2986 2986 2985 2985 2985 2985 2986 2985 2986 2987 2986 2984 2984 2986 2988 2989 2988 2988 2987 2986 2986 2988 2988 2987 2987 2985 2986 2985 2984 2983 2982 2981 2980 2979 2977 2975 2971 2968 2965 2961 2957 2952
2990 2990 2989 2989 2989 2988 2988 2988 2988 2987 2985 2985 2985 2982 2981 2982 2983 2982 2981 2985 2984 2983 2984 2986 2984 2983 2984 2986 2986 2986 2986 2986 2985 2985 2985 2984 2984 2982 2982 2981 2980 2980 2979 2977 2975 2973 2970 2967 2963 2958 2954 2949 2945 2940
2986 2986 2986 2986 2985 2985 2984 2985 2985 2984 2983 2983 2982 2979 2980 2982 2981 2980 2981 2983 2983 2981 2983 2985 2985 2984 2983 2985 2985 2986 2984 2984 2983 2983 2982 2982 2981 2980 2978 2978 2976 2976 2974 2971 2968 2965 2961 2957 2954 2949 2944 2939 2934 2929
2982 2982 2982 2982 2982 2981 2981 2982 2982 2982 2982 2981 2980 2980 2982 2981 2980 2980 2981 2982 2983 2982 2983 2983 2983 2983 2982 2983 2982 2981 2981 2981 2980 2980 2979 2980 2979 2977 2976 2974 2971 2968 2965 2962 2958 2954 2950 2945 2941 2938 2933 2928 2922 2917
2977 2978 2979 2979 2978 2977 2977 2979 2980 2980 2980 2980 2980 2980 2981 2980 2980 2981 2982 2982 2983 2983 2982 2981 2981 2981 2980 2980 2979 2979 2979 2979 2979 2979 2978 2977 2975 2973 2970 2967 2963 2960 2956 2953 2949 2944 2939 2935 2930 2925 2921 2916 2910 2905
2972 2975 2976 2976 2975 2974 2975 2977 2978 2979 2979 2980 2979 2980 2980 2980 2981 2981 2981 2982 2982 2981 2981 2980 2979 2978 2978 2978 2979 2978 2979 2979 2979 2977 2976 2974 2971 2968 2964 2961 2957 2952 2948 2943 2938 2932 2927 2922 2917 2912 2907 2902 2897 2892
2967 2971 2973 2974 2974 2974 2975 2977 2977 2978 2978 2979 2979 2979 2979 2980 2980 2979 2980 2979 2979 2980 2979 2978 2978 2979 2979 2978 2979 2979 2979 2978 2976 2974 2972 2968 2964 2960 2956 2952 2947 2942 2937 2931 2926 2921 2915 2910 2905 2900 2894 2891 2886 2882
2963 2968 2971 2972 2973 2974 2975 2977 2977 2977 2977 2977 2977 2977 2976 2976 2977 2977 2977 2977 2978 2978 2979 2979 2978 2978 2978 2978 2978 2977 2975 2973 2971 2968 2965 2962 2957 2952 2947 2941 2936 2932 2926 2921 2915 2910 2905 2900 2895 2890 2885 2881 2876 2873
2959 2965 2969 2971 2972 2974 2976 2977 2977 2976 2976 2976 2976 2975 2975 2974 2974 2974 2975 2976 2977 2977 2977 2977 2977 2977 2977 2975 2973 2972 2970 2968 2964 2961 2958 2953 2947 2942 2937 2932 2928 2922 2916 2911 2906 2901 2897 2892 2886 2881 2877 2872 2868 2865
2960 2965 2968 2970 2973 2975 2976 2977 2976 2976 2976 2976 2974 2973 2973 2973 2973 2973 2974 2974 2975 2975 2975 2975 2975 2973 2972 2971 2970 2968 2966 2963 2958 2953 2949 2945 2940 2934 2928 2922 2917 2912 2908 2903 2899 2894 2890 2885 2880 2875 2871 2866 2862 2859
2963 2966 2969 2971 2973 2975 2977 2976 2976 2976 2974 2974 2973 2972 2972 2971 2971 2971 2972 2972 2972 2972 2972 2972 2971 2971 2970 2969 2967 2965 2961 2957 2952 2946 2940 2934 2931 2925 2920 2915 2910 2905 2900 2895 2891 2887 2883 2877 2872 2868 2864 2860 2857 2853
2967 2969 2971 2972 2974 2976 2977 2977 2976 2975 2975 2974 2974 2973 2972 2971 2971 2970 2970 2970 2970 2970 2971 2971 2971 2970 2969 2967 2963 2959 2955 2950 2946 2941 2936 2930 2924 2918 2913 2907 2902 2898 2894 2889 2885 2880 2876 2870 2866 2861 2857 2854 2851 2848
2970 2972 2973 2975 2976 2977 2979 2976 2976 2975 2975 2975 2974 2973 2972 2971 2970 2970 2969 2969 2970 2970 2970 2970 2969 2967 2965 2961 2957 2952 2947 2943 2939 2935 2929 2923 2918 2912 2906 2902 2896 2891 2888 2884 2879 2874 2870 2865 2860 2856 2852 2849 2846 2844
2974 2975 2975 2976 2977 2977 2977 2976 2975 2976 2976 2975 2974 2973 2972 2971 2970 2969 2969 2969 2970 2970 2970 2968 2966 2963 2960 2956 2951 2946 2942 2937 2932 2927 2920 2914 2909 2905 2900 2896 2891 2886 2882 2878 2874 2870 2865 2861 2856 2852 2848 2845 2842 2840
2979 2979 2979 2977 2977 2977 2977 2976 2976 2976 2976 2975 2974 2973 2972 2971 2971 2970 2970 2971 2970 2970 2967 2964 2961 2957 2953 2949 2946 2942 2936 2930 2924 2919 2913 2906 2901 2898 2895 2892 2887 2882 2878 2873 2870 2866 2861 2857 2852 2849 2845 2842 2840 2838
2978 2979 2980 2978 2978 2978 2977 2977 2976 2975 2974 2974 2973 2973 2972 2971 2971 2970 2970 2969 2968 2966 2963 2960 2956 2952 2949 2944 2940 2935 2929 2923 2917 2912 2906 2900 2895 2891 2887 2883 2881 2879 2874 2870 2865 2861 2858 2853 2850 2846 2843 2841 2838 2837
2980 2980 2980 2979 2979 2978 2977 2976 2975 2974 2973 2973 2973 2972 2972 2971 2970 2970 2968 2967 2964 2961 2958 2954 2950 2947 2943 2939 2935 2928 2923 2917 2911 2906 2900 2895 2889 2885 2882 2879 2876 2874 2870 2866 2862 2858 2854 2851 2847 2844 2841 2839 2837 2835
2982 2981 2980 2980 2978 2977 2975 2974 2973 2973 2973 2973 2972 2971 2970 2970 2969 2967 2965 2963 2960 2957 2953 2950 2947 2943 2938 2933 2928 2923 2919 2915 2910 2905 2900 2894 2888 2884 2881 2877 2874 2871 2867 2863 2859 2855 2852 2849 2845 2842 2839 2837 2835 2834
2982 2981 2980 2978 2976 2975 2974 2974 2973 2972 2972 2971 2970 2969 2967 2966 2964 2962 2960 2958 2956 2953 2951 2948 2945 2941 2935 2929 2923 2917 2913 2909 2905 2902 2897 2893 2889 2885 2879 2875 2872 2868 2865 2862 2858 2853 2850 2846 2843 2840 2838 2835 2833 2832
2981 2979 2978 2976 2975 2974 2973 2972 2970 2969 2968 2967 2966 2965 2963 2961 2960 2958 2957 2955 2953 2951 2948 2943 2939 2935 2930 2926 2922 2917 2910 2906 2900 2896 2891 2887 2883 2879 2875 2872 2869 2866 2862 2859 2856 2852 2849 2845 2842 2840 2837 2835 2833 2831
2979 2977 2975 2974 2972 2971 2969 2968 2966 2964 2963 2961 2960 2959 2958 2957 2957 2956 2955 2953 2951 2948 2945 2941 2936 2931 2927 2922 2918 2915 2911 2907 2901 2896 2890 2886 2882 2878 2874 2870 2867 2863 2859 2856 2853 2850 2847 2844 2842 2839 2837 2835 2833 2831
2976 2974 2972 2970 2969 2968 2965 2963 2961 2959 2958 2958 2957 2956 2956 2955 2955 2955 2954 2951 2949 2946 2941 2936 2932 2928 2924 2920 2915 2911 2907 2903 2898 2894 2889 2885 2881 2876 2872 2869 2865 2862 2859 2855 2852 2849 2847 2844 2842 2840 2838 2836 2834 2833
2973 2971 2969 2967 2965 2963 2962 2960 2959 2959 2958 2957 2956 2956 2956 2956 2955 2954 2951 2948 2945 2941 2937 2933 2929 2925 2921 2918 2914 2911 2907 2902 2897 2893 2889 2884 2879 2876 2872 2869 2866 2862 2859 2855 2852 2850 2847 2845 2843 2841 2839 2838 2836 2835